Location: Ferma
(41.9500°N, 44.5167°E)
Time: 12:09:07
(UTC+00:00)

Cosmos 1269 Rocket - Pass Details

Date: 29 May 2022
Orbit: 773 x 778 km, 74.1° (Epoch: 01 July)

Event Time Altitude Azimuth Distance (km) Brightness Sun altitude
Rises 22:28:13 0° 335° (NNW) 3,257 7.9 -23.1°
Reaches altitude 10° 22:30:39 10° 331° (NNW) 2,326 7.0 -22.9°
Maximum altitude 22:35:45 52° 256° (WSW) 959 4.2 -22.5°
Enters shadow 22:36:12 50° 237° (WSW) 977 4.2 -22.5°
